Weather Roundup
Issued by NWS

Home | Current Version | Previous Version | Text Only | Print | Product List | Glossary On
Versions: 1 2 3 4 5 6 7 8 9 10 11 12 13 14 15 16 17 18 19 20 21 22 23 24 25 26 27 28 29 30 31 32 33 34 35 36 37 38 39 40 41 42 43 44 45 46 47 48 49 50
000
NZUS93 KARX 032359
HRRWXR

CURRENT HOURLY OBSERVATIONS ACROSS
MUCH OF THE UPPER MISSISSIPPI VALLEY
NATIONAL WEATHER SERVICE LA CROSSE WI
700 PM CDT SUN MAY 03 2015


...SOUTHEAST MINNESOTA...


CITY           SKY/WX    TMP DP  RH WIND       PRES   REMARKS
ROCHESTER      PTSUNNY   78  51  38 SE12      29.71F
ROCHESTER/MAYO MOCLDY    76  53  44 NW20G35   29.75S
WINONA         PTSUNNY   79  48  34 CALM      29.72F
AUSTIN         PTSUNNY   75  57  53 S7        29.73S
ALBERT LEA     TSTM      63  61  94 W16G35    29.77R VSB 1
DODGE CENTER   TSTM      63  57  82 N24       29.76R
PRESTON        MOSUNNY   78  52  40 S10       29.74F
OWATONNA       CLOUDY    66  61  82 N20G25    29.76F
FARIBAULT      CLOUDY    66  57  72 N14G21    29.79F
$$

...ELSEWHERE IN MINNESOTA...


CITY           SKY/WX    TMP DP  RH WIND       PRES   REMARKS
MINNEAPOLIS    CLOUDY    65  52  62 N14       29.81F
INTNL FALLS    SUNNY     63  27  25 NW14      29.86R
DULUTH         CLOUDY    65  40  39 W6        29.84F
RED WING       CLOUDY    57  57 100 N18G24    29.81S
REDWOOD FALLS  CLOUDY    69  39  33 N10G21    29.84F
MANKATO          N/A    N/A N/A N/A MISG        N/A
WORTHINGTON    MOSUNNY   70  36  28 N23G30    29.83S
FAIRMONT       CLOUDY    72  43  35 N25G33    29.80R
$$

...SOUTHWEST WISCONSIN...


CITY           SKY/WX    TMP DP  RH WIND       PRES   REMARKS
LA CROSSE      MOSUNNY   81  55  40 S13       29.73S
PRAIRIE DU CHI SUNNY     77  55  45 SE9       29.79F
BOSCOBEL       SUNNY     76  58  53 S8        29.80F
LONE ROCK      NOT AVBL
PLATTEVILLE    SUNNY     73  58  60 SE12      29.84F
FORT MC COY    MOSUNNY   78  51  40 S12       29.78R
VIROQUA        FAIR      75  56  51 S14       29.81R
WIS DELLS      NOT AVBL
$$

...ELSEWHERE IN WISCONSIN...


CITY           SKY/WX    TMP DP  RH WIND       PRES   REMARKS
MILWAUKEE      CLOUDY    68  53  58 SW15G28   29.90F
MADISON        MOCLDY    70  54  56 S15       29.85F
GREEN BAY      CLEAR     75  55  49 S15G25    29.79F
EAU CLAIRE     TSTM      75  54  47 NE7       29.74S
BLACK RVR FLS  FAIR      80  48  32 S6        29.74F
MEDFORD        PTSUNNY   74  52  45 SW8       29.78S
WAUSAU         MOSUNNY   75  52  44 SW9       29.76S
WIS RAPIDS     SUNNY     76  50  40 S14       29.79S
MARSHFIELD     MOSUNNY   75  52  44 SW6       29.77S
RICE LAKE      TSTM      70  46  42 N15G23    29.83R
$$

...NORTHEAST IOWA...


CITY           SKY/WX    TMP DP  RH WIND       PRES   REMARKS
DECORAH        SUNNY     77  57  50 S12G20    29.77S
MASON CITY     PTSUNNY   78  57  48 S13       29.72F
CHARLES CITY   MOSUNNY   81  55  41 S21       29.75F
OELWEIN        MOSUNNY   81  59  47 S20       29.78F
$$

...ELSEWHERE IN IOWA...


CITY           SKY/WX    TMP DP  RH WIND       PRES   REMARKS
DES MOINES     PTSUNNY   80  57  45 S9        29.77F
IOWA CITY      PTSUNNY   80  57  45 S9        29.83S
FORT DODGE     PTSUNNY   81  61  50 S13G21    29.74S
$$

...NORTHERN ILLINOIS...


CITY           SKY/WX    TMP DP  RH WIND       PRES   REMARKS
CHICAGO-OHARE  RAIN      63  59  87 NW12      29.96R FOG
CHICAGO-MIDWAY LGT RAIN  69  57  65 NW12      29.95R
MOLINE         PTSUNNY   81  55  40 S9        29.83F
ROCKFORD       PTCLDY    64  58  80 SE12      29.90F
PEORIA         CLEAR     82  51  34 SW13      29.89R
$$

NOTE: "FAIR" INDICATES FEW OR NO CLOUDS BELOW 12,000 FEET WITH NO
SIGNIFICANT WEATHER AND/OR OBSTRUCTIONS TO VISIBILITY. WIND
SPEEDS ARE IN MILES-PER-HOUR.



USA.gov is the U.S. government's official web portal to all federal, state and local government web resources and services.